{"data":{"norad_id":64740,"intl_designator":"2025-144S","name":"STARLINK-34208","alt_names":[],"object_type":"PAYLOAD","status":"ACTIVE","operator":null,"country":"US","launch_date":"2025-07-02","launch_site_code":"AFETR","launch_vehicle":null,"mission":null,"orbit_class":"UNKNOWN","rcs_meters":null,"size_class":null,"mass_kg":null,"dimensions":null,"purposes":["comms"],"wikipedia_slug":null,"has_3d_model":false,"image_url":null,"decayed_at":null,"tle_current":{"epoch":"2026-09-20T12:08:42.992160Z","epoch_age_seconds":127124,"freshness":"FRESH","line1":"1 64740U 25144S   26263.50605315  .00012589  00000+0  38283-3 0  9992","line2":"2 64740  53.1605 349.4318 0000904  68.8656 291.2444 15.34420830 69637","mean_motion":15.3442083,"eccentricity":9.04e-5,"inclination_deg":53.1605,"raan_deg":349.4318,"arg_perigee_deg":68.8656,"mean_anomaly_deg":291.2444,"bstar":0.00038283,"rev_number":6963,"period_min":93.846484083509,"perigee_km":462.02292339675,"apogee_km":463.25973611877,"semimajor_km":6840.7783297578,"source":"CELESTRAK","updated_at":"2026-09-21T09:00:35.412217Z"}}}